TimeCST,TemperatureF,Dew PointF,Humidity,Sea Level PressureIn,VisibilityMPH,Wind Direction,Wind SpeedMPH,Gust SpeedMPH,PrecipitationIn,Events,Conditions,WindDirDegrees,DateUTC
12:15 AM,-7.6,-13.4,76,30.42,10.0,North,8.1,-,N/A,,Overcast,10,2014-03-02 06:15:00
12:35 AM,-7.6,-13.7,75,30.42,10.0,North,6.9,-,N/A,,Overcast,360,2014-03-02 06:35:00
12:55 AM,-7.6,-13.9,74,30.41,10.0,North,9.2,-,N/A,,Overcast,350,2014-03-02 06:55:00
1:15 AM,-7.6,-14.3,73,30.42,10.0,North,8.1,-,N/A,,Overcast,360,2014-03-02 07:15:00
1:35 AM,-7.8,-14.3,73,30.42,10.0,North,8.1,-,N/A,,Overcast,350,2014-03-02 07:35:00
1:55 AM,-8.3,-14.8,73,30.43,10.0,North,5.8,-,N/A,,Overcast,360,2014-03-02 07:55:00
2:15 AM,-9.0,-15.7,73,30.43,10.0,North,9.2,-,N/A,,Mostly Cloudy,360,2014-03-02 08:15:00
2:35 AM,-8.3,-14.6,74,30.43,10.0,North,4.6,-,0.01,,Overcast,10,2014-03-02 08:35:00
2:55 AM,-8.5,-14.8,74,30.43,10.0,North,5.8,-,0.02,,Overcast,360,2014-03-02 08:55:00
3:15 AM,-8.5,-14.6,75,30.43,10.0,North,5.8,-,N/A,,Overcast,360,2014-03-02 09:15:00
3:35 AM,-8.1,-14.6,73,30.43,10.0,North,8.1,-,N/A,,Overcast,360,2014-03-02 09:35:00
3:55 AM,-8.5,-15.0,73,30.43,10.0,NNW,6.9,-,N/A,,Overcast,340,2014-03-02 09:55:00
4:15 AM,-8.7,-15.2,73,30.42,10.0,North,6.9,-,N/A,,Overcast,350,2014-03-02 10:15:00
4:35 AM,-9.2,-15.3,74,30.43,10.0,NNW,6.9,-,N/A,,Mostly Cloudy,330,2014-03-02 10:35:00
4:55 AM,-9.6,-15.9,74,30.43,10.0,Calm,Calm,-,N/A,,Mostly Cloudy,0,2014-03-02 10:55:00
5:15 AM,-9.8,-16.2,73,30.43,10.0,Calm,Calm,-,N/A,,Mostly Cloudy,0,2014-03-02 11:15:00
5:35 AM,-9.9,-16.1,74,30.45,10.0,Calm,Calm,-,N/A,,Scattered Clouds,0,2014-03-02 11:35:00
5:55 AM,-10.1,-16.1,75,30.44,10.0,Calm,Calm,-,N/A,,Mostly Cloudy,0,2014-03-02 11:55:00
6:15 AM,-10.3,-15.9,76,30.43,10.0,Calm,Calm,-,N/A,,Mostly Cloudy,0,2014-03-02 12:15:00
6:35 AM,-10.5,-16.1,76,30.44,10.0,Calm,Calm,-,N/A,,Mostly Cloudy,0,2014-03-02 12:35:00
6:55 AM,-11.2,-16.6,77,30.43,10.0,Calm,Calm,-,N/A,,Mostly Cloudy,0,2014-03-02 12:55:00
7:15 AM,-11.4,-16.4,78,30.43,10.0,Calm,Calm,-,N/A,,Scattered Clouds,0,2014-03-02 13:15:00
7:35 AM,-11.6,-16.1,80,30.44,10.0,NW,5.8,-,N/A,,Clear,310,2014-03-02 13:35:00
7:55 AM,-12.1,-17.0,79,30.44,10.0,NW,3.5,-,N/A,,Clear,320,2014-03-02 13:55:00
8:15 AM,-11.6,-16.6,78,30.45,10.0,NW,5.8,-,N/A,,Clear,320,2014-03-02 14:15:00
8:35 AM,-9.9,-15.3,77,30.45,10.0,NW,5.8,-,N/A,,Mostly Cloudy,320,2014-03-02 14:35:00
8:55 AM,-10.1,-15.9,76,30.45,10.0,NNW,4.6,-,N/A,,Overcast,340,2014-03-02 14:55:00
9:15 AM,-8.7,-14.8,75,30.46,10.0,NW,5.8,-,N/A,,Overcast,320,2014-03-02 15:15:00
9:35 AM,-8.0,-14.8,72,30.47,10.0,Calm,Calm,-,N/A,,Overcast,0,2014-03-02 15:35:00
9:55 AM,-6.7,-14.8,68,30.48,10.0,Calm,Calm,-,N/A,,Mostly Cloudy,0,2014-03-02 15:55:00
10:15 AM,-6.2,-15.0,66,30.49,10.0,Calm,Calm,-,N/A,,Scattered Clouds,0,2014-03-02 16:15:00
10:35 AM,-5.6,-14.6,65,30.48,10.0,North,4.6,-,N/A,,Scattered Clouds,350,2014-03-02 16:35:00
10:55 AM,-5.1,-14.6,63,30.46,10.0,NNE,3.5,-,N/A,,Clear,20,2014-03-02 16:55:00
11:15 AM,-4.7,-14.3,64,30.44,10.0,Calm,Calm,-,N/A,,Clear,0,2014-03-02 17:15:00
11:35 AM,-4.0,-14.8,60,30.43,10.0,North,5.8,-,N/A,,Clear,360,2014-03-02 17:35:00
11:55 AM,-3.1,-13.5,61,30.43,10.0,NNW,4.6,-,N/A,,Scattered Clouds,340,2014-03-02 17:55:00
12:15 PM,-2.2,-14.1,57,30.45,10.0,Calm,Calm,-,N/A,,Clear,0,2014-03-02 18:15:00
12:35 PM,-1.7,-13.7,57,30.46,10.0,Calm,Calm,-,N/A,,Clear,0,2014-03-02 18:35:00
12:55 PM,-0.9,-13.9,54,30.46,10.0,Calm,Calm,-,N/A,,Clear,0,2014-03-02 18:55:00
1:15 PM,0.1,-12.1,56,30.45,10.0,West,3.5,-,N/A,,Clear,280,2014-03-02 19:15:00
1:35 PM,0.5,-11.4,57,30.44,10.0,Calm,Calm,-,N/A,,Clear,0,2014-03-02 19:35:00
1:55 PM,0.3,-11.0,59,30.43,10.0,Calm,Calm,-,N/A,,Clear,0,2014-03-02 19:55:00
2:15 PM,1.2,-11.0,57,30.41,10.0,Calm,Calm,-,N/A,,Clear,0,2014-03-02 20:15:00
2:35 PM,1.2,-11.0,57,30.41,10.0,Calm,Calm,-,N/A,,Clear,0,2014-03-02 20:35:00
2:55 PM,1.9,-10.3,57,30.42,10.0,NNW,3.5,-,N/A,,Clear,340,2014-03-02 20:55:00
3:15 PM,2.1,-10.8,55,30.40,10.0,Calm,Calm,-,N/A,,Clear,0,2014-03-02 21:15:00
3:35 PM,2.3,-10.7,55,30.39,10.0,Calm,Calm,-,N/A,,Clear,0,2014-03-02 21:35:00
3:55 PM,2.3,-10.5,55,30.38,10.0,NNW,3.5,-,N/A,,Clear,330,2014-03-02 21:55:00
4:15 PM,2.8,-10.1,55,30.38,10.0,North,3.5,-,N/A,,Clear,350,2014-03-02 22:15:00
4:35 PM,3.0,-9.8,55,30.38,10.0,North,3.5,-,N/A,,Clear,350,2014-03-02 22:35:00
4:55 PM,3.0,-9.6,56,30.38,10.0,NE,3.5,-,N/A,,Clear,40,2014-03-02 22:55:00
5:15 PM,2.3,-9.4,58,30.38,10.0,ESE,3.5,-,N/A,,Clear,110,2014-03-02 23:15:00
5:35 PM,1.4,-9.4,61,30.37,10.0,East,6.9,-,N/A,,Clear,90,2014-03-02 23:35:00
5:55 PM,0.5,-9.9,62,30.36,10.0,ESE,4.6,-,N/A,,Clear,110,2014-03-02 23:55:00
6:15 PM,-0.2,-10.5,62,30.36,10.0,ESE,3.5,-,N/A,,Clear,120,2014-03-03 00:15:00
6:35 PM,-1.3,-10.8,64,30.36,10.0,Calm,Calm,-,N/A,,Clear,0,2014-03-03 00:35:00
6:55 PM,-1.8,-10.8,66,30.36,10.0,East,5.8,-,N/A,,Clear,90,2014-03-03 00:55:00
7:15 PM,-3.3,-11.7,67,30.36,10.0,East,6.9,-,N/A,,Clear,100,2014-03-03 01:15:00
7:35 PM,-5.4,-13.5,68,30.36,10.0,East,5.8,-,N/A,,Clear,90,2014-03-03 01:35:00
7:55 PM,-4.7,-12.8,68,30.37,10.0,ESE,5.8,-,N/A,,Clear,110,2014-03-03 01:55:00
8:15 PM,-5.8,-14.1,67,30.38,10.0,East,4.6,-,N/A,,Clear,100,2014-03-03 02:15:00
8:35 PM,-6.7,-15.2,67,30.39,10.0,ESE,4.6,-,N/A,,Clear,110,2014-03-03 02:35:00
8:55 PM,-7.8,-15.3,70,30.39,10.0,ESE,4.6,-,N/A,,Clear,120,2014-03-03 02:55:00
9:15 PM,-7.6,-15.2,70,30.39,10.0,SSE,6.9,-,N/A,,Clear,160,2014-03-03 03:15:00
9:35 PM,-11.9,-18.6,72,30.39,10.0,South,6.9,-,N/A,,Clear,180,2014-03-03 03:35:00
9:55 PM,-11.0,-17.5,73,30.38,10.0,South,6.9,-,N/A,,Clear,170,2014-03-03 03:55:00
10:15 PM,-9.4,-16.4,71,30.37,10.0,South,6.9,-,N/A,,Clear,180,2014-03-03 04:15:00
10:35 PM,-8.7,-16.1,70,30.38,10.0,South,6.9,-,N/A,,Clear,180,2014-03-03 04:35:00
10:55 PM,-9.6,-16.6,71,30.35,10.0,South,8.1,-,N/A,,Clear,170,2014-03-03 04:55:00
11:41 PM,-7.6,-14.8,71,30.37,10.0,South,8.1,-,N/A,,Clear,170,2014-03-03 05:41:00
11:55 PM,-8.0,-15.5,70,30.37,10.0,South,6.9,-,N/A,,Clear,170,2014-03-03 05:55:00